Location: Eschertshofen
(49.3064°N, 11.5756°E)
Time: 01:35:51
(UTC+00:00)

Iridium 26 - Pass Details

Date: 26 September 2021
Orbit: 772 x 775 km, 86.4° (Epoch: 21 October)

Event Time Altitude Azimuth Distance (km) Brightness Sun altitude
Exits shadow 20:22:46 34° 11° (N) 1,261 6.7 -31.1°
Drops below altitude 10° 20:25:41 10° 6° (N) 2,334 8.4 -31.4°
Sets 20:28:02 0° 6° (N) 3,265 9.2 -31.7°
